Retour au catalogue

DELTA 1 DEB

ActifLEO
NORAD 10626·DEBRIS·🇺🇸 United States

Lancé Jul 14, 1977 depuis Cape Canaveral Space Force Station

Loading…

Prochains Passages (prochaines 24 heures)

TLE

FraisSource: Space-Track

Époque: Sep 14, 2026, 14:18 UTC

1 10626U 77065EV  26257.59617835  .00001624  00000-0  36870-3 0  9996
2 10626  29.1791  11.0683 0653003 285.7375  67.2143 13.68659158394875

Suivez DELTA 1 DEB en temps réel avec AllMySat

Download on the App Store